User: anonymous   Login
Location: Unspecified
(0.0000°N, 0.0000°E)
Time: 20:28:59
(UTC+00:00)
Language:

LIBERTAD 1 - Orbit

View from above orbital plane
View from above orbital plane
View from above satellite
View from above satellite

Ground track
Ground track

The orbit data is extracted from the following two-line orbital elements,

1 31128U 07012M   18350.81725637  .00000082  00000-0  28380-4 0  9996
2 31128  98.1448 289.3038 0095570 302.0443  57.1499 14.56045002619116
Epoch (UTC): 16 December 2018 19:36:50
Eccentricity: 0.0095570
inclination: 98.1448°
perigee height: 638 km
apogee height: 773 km
right ascension of ascending node: 289.3038°
argument of perigee: 302.0443°
revolutions per day: 14.56045002
mean anomaly at epoch: 57.1499°
orbit number at epoch: 61911

The dashed part of the orbit path shows where the satellite is in the earth's shadow,  

DLR